COSMOS 2294 (GLONASS)

Satellite information

Favourite Embed

Satellite Type and Status

PAYLOADIN ORBIT

Key statistics

Satellite COSMOS 2294 (GLONASS) at a glance.

Uptime

11346

Days in orbit

Revolutions

≈ 2.1

Per day

Orbit

MEO

Medium Earth Orbit

Inclination

64.7

Latest

Satellite identification and parameters

Extended collection of information and parameters for COSMOS 2294 (GLONASS).

Object identification

Identified? True

Debris? False

Object name: COSMOS 2294 (GLONASS)

International designator: 1994-076C

Object number (NORAD): 23398

Object ID (CCSDS): 23398

Country: COMMONWEALTH OF INDEPENDENT STATES (CIS)

Current information (Y/N): Y

RCS size: LARGE

Orbital parameters

Period: 675.734 minutes

Inclination: 64.7209 deg

SMA: 25508.045 km

Apoapsis: 19141.925 km

Periapsis: 19117.895 km

RAAN: 75.2732 deg

Eccentricy: 0.00047102

Argument of periapsis: 29.5288 deg

Mean anomaly: 327.7085 deg

Mean motion: 2.13101742 rev/day

Mean motion (dot): -0.00000037 rev/day2

B* drag term: 0.0 1/REarth

Two-line elements (TLE)

Creation date: Dec. 11, 2025, 7:14 p.m.

Reference frame: TEME

Reference center: EARTH

Epoch: Dec. 11, 2025, 8:43 a.m. UTC

TLE line 0: 0 COSMOS 2294 (GLONASS)

TLE line 1: 1 23398U 94076C 25345.36364412 -.00000037 00000-0 00000-0 0 9990

TLE line 2: 2 23398 64.7209 75.2732 0004710 29.5288 327.7085 2.13101742241670

Live tracking on map

Real-time ground track for satellite COSMOS 2294 (GLONASS).

In-orbit conjunctions

A list of the most updated potential collisions computed for object COSMOS 2294 (GLONASS).

Target Orbit TCA Probability of collision Miss distance Type
COSMOS 2288 (GLONASS) MEO 2025-12-15 12:44:06 TBA 4560.0 (m) PAYLOAD
COSMOS 2288 (GLONASS) MEO 2025-12-15 01:28:22 TBA 4389.0 (m) PAYLOAD
COSMOS 2288 (GLONASS) MEO 2025-12-14 14:12:37 TBA 4160.0 (m) PAYLOAD
COSMOS 2288 (GLONASS) MEO 2025-12-14 02:56:53 TBA 3890.0 (m) PAYLOAD
COSMOS 2288 (GLONASS) MEO 2025-12-13 15:41:09 TBA 3633.0 (m) PAYLOAD

Associated space launch

GLONASS navigation satellites

COSMOS 2294 (GLONASS) was lifted into orbit during the mission ‘Proton | Uragan 60 to 62’, on board a Proton space rocket.

The launch took place on Nov. 20, 1994, 12:39 a.m. from 200/39 (200L).

For more information about the launch, click the button.

Launch to space Proton | Uragan 60 to 62
Proton | Uragan 60 to 62

Agency: N/A

Status: Launch Successful

Launch date: Nov. 20, 1994, 12:39 a.m. UTC

Rocket: Proton

Launch pad: 200/39 (200L)

Location: Baikonur Cosmodrome, Republic of Kazakhstan

...

Latest news about this satellite

There are no fresh news available about this satellite. Check back as we update our databases every day.


Newsletter sign-up

Weekly statistics, charts and insights to help you stay on top of the space industry.